Location: Nitra
(0.0000°N, 18.0833°E)
Time: 15:20:45
(UTC+02:00)

N. Korean satellite - Pass Details

Date: 24 April 2021
Orbit: 450 x 501 km, 97.2° (Epoch: 15 May)

Event Time Altitude Azimuth Distance (km) Brightness Sun altitude
Rises 06:02:12 0° 0° (N) 2,470 10.3 -10.6°
Reaches altitude 10° 06:04:18 10° 354° (N) 1,592 9.3 -10.1°
Maximum altitude 06:07:33 43° 281° (WNW) 649 6.8 -9.3°
Drops below altitude 10° 06:10:47 10° 208° (SSW) 1,584 8.8 -8.5°
Sets 06:12:53 0° 201° (SSW) 2,455 9.8 -8.0°
